PHASE 3B (AO-10)

Last updated on Tue Aug 25 2026 00:03:13 GMT+0000 (Coordinated Universal Time)

1 14129U 83058B 26234.88657270 -.00000310 00000+0 00000+0 0 9994 2 14129 25.9661 208.6277 5988982 133.9728 294.5118 2.05871966296867
UTC large
Height (km)
Speed (km/s)
/
Latitude / Longitude
Inclination (degrees)
Orbital Period (minutes)
Azimuth
Elevation
Range (km)
Doppler Factor

Next 0 passes for location: London (51.5072 / 0.1276)

No passes found over London.
PHASE 3B (AO-10)